"Sample Date","Sample Time","Sample Value","Units","Flow Rate","Number Channels","Micron Size 0","Counts/Channel 0","Micron Size 1","Counts/Channel 1","Micron Size 2","Counts/Channel 2","Micron Size 3","Counts/Channel 3","Micron Size 4","Counts/Channel 4","Micron Size 5","Counts/Channel 5","Micron Size 6","Counts/Channel 6","Micron Size 7","Counts/Channel 7","Micron Size 8","Counts/Channel 8","Micron Size 9","Counts/Channel 9","Micron Size 10","Counts/Channel 10","Micron Size 11","Counts/Channel 11","Micron Size 12","Counts/Channel 12","Micron Size 13","Counts/Channel 13","Micron Size 14","Counts/Channel 14","Micron Size 15","Counts/Channel 15","Micron Size 16","Counts/Channel 16","Micron Size 17","Counts/Channel 17","Micron Size 18","Counts/Channel 18","Micron Size 19","Counts/Channel 19","Micron Size 20","Counts/Channel 20","Micron Size 21","Counts/Channel 21","Micron Size 22","Counts/Channel 22","Micron Size 23","Counts/Channel 23","Micron Size 24","Counts/Channel 24","Micron Size 25","Counts/Channel 25","Micron Size 26","Counts/Channel 26","Micron Size 27","Counts/Channel 27","Micron Size 28","Counts/Channel 28","Micron Size 29","Counts/Channel 29","Micron Size 30","Counts/Channel 30","Micron Size 31","Counts/Channel 31"
"05/12/08","13:00:05",9471.000,"cc",28305.340,6,0.100,7996.000,0.200,1360.000,0.300,105.000,0.500,10.000,1.000,0,5.000,0
"05/12/08","13:00:11",13511.000,"cc",28320.707,6,0.100,11462.000,0.200,1892.000,0.300,140.000,0.500,16.000,1.000,1.000,5.000,0
"05/12/08","13:00:17",14281.000,"cc",28358.824,6,0.100,12154.000,0.200,1972.000,0.300,141.000,0.500,14.000,1.000,0,5.000,0
"05/12/08","13:00:23",10349.000,"cc",28319.580,6,0.100,8735.000,0.200,1471.000,0.300,131.000,0.500,12.000,1.000,0,5.000,0
"05/12/08","13:00:29",10479.000,"cc",28271.471,6,0.100,8861.000,0.200,1512.000,0.300,96.000,0.500,9.000,1.000,1.000,5.000,0
"05/12/08","13:00:35",9651.000,"cc",28311.598,6,0.100,8178.000,0.200,1345.000,0.300,110.000,0.500,17.000,1.000,1.000,5.000,0
"05/12/08","13:00:41",14587.000,"cc",28326.004,6,0.100,12400.000,0.200,2026.000,0.300,144.000,0.500,14.000,1.000,3.000,5.000,0
"05/12/08","13:00:47",9951.000,"cc",28287.897,6,0.100,8381.000,0.200,1440.000,0.300,106.000,0.500,22.000,1.000,2.000,5.000,0
"05/12/08","13:00:53",10457.000,"cc",28316.627,6,0.100,8849.000,0.200,1452.000,0.300,128.000,0.500,27.000,1.000,1.000,5.000,0
"05/12/08","13:00:59",6897.000,"cc",28317.537,6,0.100,5760.000,0.200,1047.000,0.300,83.000,0.500,7.000,1.000,0,5.000,0
"05/12/08","13:01:05",6003.000,"cc",28329.840,6,0.100,4964.000,0.200,952.000,0.300,72.000,0.500,12.000,1.000,3.000,5.000,0
"05/12/08","13:01:11",4783.000,"cc",28342.988,6,0.100,3987.000,0.200,739.000,0.300,48.000,0.500,9.000,1.000,0,5.000,0
"05/12/08","13:01:17",10177.000,"cc",28262.768,6,0.100,8684.000,0.200,1351.000,0.300,123.000,0.500,16.000,1.000,3.000,5.000,0
"05/12/08","13:01:23",12375.000,"cc",28307.930,6,0.100,10440.000,0.200,1780.000,0.300,134.000,0.500,20.000,1.000,1.000,5.000,0
"05/12/08","13:01:29",9777.000,"cc",28320.106,6,0.100,8248.000,0.200,1370.000,0.300,138.000,0.500,21.000,1.000,0,5.000,0
"05/12/08","13:01:35",16781.000,"cc",28321.357,6,0.100,14177.000,0.200,2374.000,0.300,205.000,0.500,25.000,1.000,0,5.000,0
"05/12/08","13:01:41",11379.000,"cc",28259.449,6,0.100,9514.000,0.200,1677.000,0.300,152.000,0.500,35.000,1.000,1.000,5.000,0
"05/12/08","13:01:47",6735.000,"cc",28322.084,6,0.100,5640.000,0.200,973.000,0.300,108.000,0.500,13.000,1.000,1.000,5.000,0
"05/12/08","13:01:53",4523.000,"cc",28357.940,6,0.100,3791.000,0.200,661.000,0.300,59.000,0.500,12.000,1.000,0,5.000,0
"05/12/08","13:01:59",7395.000,"cc",28321.055,6,0.100,6261.000,0.200,1031.000,0.300,91.000,0.500,11.000,1.000,1.000,5.000,0
"05/12/08","13:02:05",10247.000,"cc",28247.025,6,0.100,8641.000,0.200,1470.000,0.300,114.000,0.500,22.000,1.000,0,5.000,0
"05/12/08","13:02:11",7466.000,"cc",28314.486,6,0.100,6273.000,0.200,1102.000,0.300,78.000,0.500,13.000,1.000,0,5.000,0
"05/12/08","13:02:17",4958.000,"cc",28362.051,6,0.100,4160.000,0.200,733.000,0.300,59.000,0.500,6.000,1.000,0,5.000,0
"05/12/08","13:02:23",4457.000,"cc",28301.969,6,0.100,3697.000,0.200,680.000,0.300,70.000,0.500,10.000,1.000,0,5.000,0
"05/12/08","13:02:29",5882.000,"cc",28337.545,6,0.100,4947.000,0.200,843.000,0.300,73.000,0.500,18.000,1.000,1.000,5.000,0
"05/12/08","13:02:35",5605.000,"cc",28327.127,6,0.100,4681.000,0.200,834.000,0.300,79.000,0.500,11.000,1.000,0,5.000,0
"05/12/08","13:02:41",5114.000,"cc",28316.625,6,0.100,4289.000,0.200,752.000,0.300,63.000,0.500,10.000,1.000,0,5.000,0
"05/12/08","13:02:47",8687.000,"cc",28279.910,6,0.100,7401.000,0.200,1162.000,0.300,112.000,0.500,10.000,1.000,2.000,5.000,0
"05/12/08","13:02:53",6984.000,"cc",28365.553,6,0.100,5895.000,0.200,983.000,0.300,94.000,0.500,12.000,1.000,0,5.000,0
"05/12/08","13:02:59",5507.000,"cc",28351.012,6,0.100,4592.000,0.200,823.000,0.300,78.000,0.500,13.000,1.000,1.000,5.000,0
"05/12/08","13:03:05",6182.000,"cc",28305.738,6,0.100,5150.000,0.200,941.000,0.300,80.000,0.500,9.000,1.000,2.000,5.000,0
"05/12/08","13:03:11",5711.000,"cc",28284.756,6,0.100,4820.000,0.200,790.000,0.300,84.000,0.500,16.000,1.000,1.000,5.000,0
"05/12/08","13:03:17",5462.000,"cc",28285.654,6,0.100,4529.000,0.200,831.000,0.300,76.000,0.500,25.000,1.000,1.000,5.000,0
"05/12/08","13:03:23",4814.000,"cc",28402.826,6,0.100,3964.000,0.200,757.000,0.300,81.000,0.500,9.000,1.000,3.000,5.000,0
"05/12/08","13:03:29",7571.000,"cc",28251.375,6,0.100,6443.000,0.200,1019.000,0.300,102.000,0.500,7.000,1.000,0,5.000,0
"05/12/08","13:03:35",6698.000,"cc",28289.916,6,0.100,5672.000,0.200,921.000,0.300,95.000,0.500,10.000,1.000,0,5.000,0
"05/12/08","13:03:41",9810.000,"cc",28333.471,6,0.100,8430.000,0.200,1276.000,0.300,91.000,0.500,11.000,1.000,2.000,5.000,0
"05/12/08","13:03:47",10597.000,"cc",28329.066,6,0.100,8990.000,0.200,1490.000,0.300,101.000,0.500,15.000,1.000,1.000,5.000,0
"05/12/08","13:03:53",6123.000,"cc",28318.209,6,0.100,5147.000,0.200,887.000,0.300,80.000,0.500,9.000,1.000,0,5.000,0
"05/12/08","13:03:59",8895.000,"cc",28323.016,6,0.100,7575.000,0.200,1219.000,0.300,90.000,0.500,11.000,1.000,0,5.000,0
"05/12/08","13:04:05",8046.000,"cc",28282.057,6,0.100,6846.000,0.200,1102.000,0.300,78.000,0.500,20.000,1.000,0,5.000,0
"05/12/08","13:04:11",5309.000,"cc",28315.248,6,0.100,4449.000,0.200,767.000,0.300,80.000,0.500,12.000,1.000,1.000,5.000,0
"05/12/08","13:04:17",11524.000,"cc",28310.719,6,0.100,9894.000,0.200,1521.000,0.300,100.000,0.500,8.000,1.000,1.000,5.000,0
"05/12/08","13:04:23",15928.000,"cc",28298.365,6,0.100,13689.000,0.200,2109.000,0.300,114.000,0.500,14.000,1.000,2.000,5.000,0
"05/12/08","13:04:29",16368.000,"cc",28297.787,6,0.100,14096.000,0.200,2126.000,0.300,135.000,0.500,11.000,1.000,0,5.000,0
"05/12/08","13:04:35",17169.000,"cc",28364.330,6,0.100,14800.000,0.200,2222.000,0.300,134.000,0.500,11.000,1.000,2.000,5.000,0
"05/12/08","13:04:41",10882.000,"cc",28326.654,6,0.100,9284.000,0.200,1483.000,0.300,101.000,0.500,13.000,1.000,1.000,5.000,0
"05/12/08","13:04:47",10566.000,"cc",28308.354,6,0.100,8962.000,0.200,1484.000,0.300,107.000,0.500,12.000,1.000,1.000,5.000,0
"05/12/08","13:04:53",10586.000,"cc",28262.445,6,0.100,8958.000,0.200,1498.000,0.300,107.000,0.500,22.000,1.000,1.000,5.000,0
"05/12/08","13:04:59",13297.000,"cc",28323.190,6,0.100,11382.000,0.200,1749.000,0.300,150.000,0.500,16.000,1.000,0,5.000,0
"05/12/08","13:05:05",14664.000,"cc",28407.518,6,0.100,12503.000,0.200,1977.000,0.300,167.000,0.500,17.000,1.000,0,5.000,0
"05/12/08","13:05:11",11491.000,"cc",28305.996,6,0.100,9813.000,0.200,1542.000,0.300,114.000,0.500,21.000,1.000,1.000,5.000,0
"05/12/08","13:05:17",7036.000,"cc",28295.029,6,0.100,5897.000,0.200,1044.000,0.300,80.000,0.500,15.000,1.000,0,5.000,0
"05/12/08","13:05:23",9070.000,"cc",28313.613,6,0.100,7663.000,0.200,1288.000,0.300,99.000,0.500,20.000,1.000,0,5.000,0
"05/12/08","13:05:29",10037.000,"cc",28357.406,6,0.100,8458.000,0.200,1437.000,0.300,127.000,0.500,15.000,1.000,0,5.000,0
"05/12/08","13:05:35",9345.000,"cc",28228.824,6,0.100,7906.000,0.200,1342.000,0.300,89.000,0.500,8.000,1.000,0,5.000,0
"05/12/08","13:05:41",6254.000,"cc",28335.984,6,0.100,5304.000,0.200,896.000,0.300,47.000,0.500,7.000,1.000,0,5.000,0
"05/12/08","13:05:47",10741.000,"cc",28381.510,6,0.100,9233.000,0.200,1397.000,0.300,97.000,0.500,13.000,1.000,1.000,5.000,0
"05/12/08","13:05:53",15828.000,"cc",28268.402,6,0.100,13532.000,0.200,2175.000,0.300,112.000,0.500,9.000,1.000,0,5.000,0
"05/12/08","13:05:59",27903.000,"cc",28317.164,6,0.100,23987.000,0.200,3725.000,0.300,179.000,0.500,12.000,1.000,0,5.000,0
"05/12/08","13:06:05",21439.000,"cc",28309.488,6,0.100,18472.000,0.200,2776.000,0.300,174.000,0.500,16.000,1.000,1.000,5.000,0
"05/12/08","13:06:11",14454.000,"cc",28299.945,6,0.100,12331.000,0.200,1956.000,0.300,151.000,0.500,16.000,1.000,0,5.000,0
"05/12/08","13:06:17",9410.000,"cc",28378.414,6,0.100,7978.000,0.200,1321.000,0.300,97.000,0.500,14.000,1.000,0,5.000,0
"05/12/08","13:06:23",7081.000,"cc",28318.514,6,0.100,5938.000,0.200,1051.000,0.300,80.000,0.500,12.000,1.000,0,5.000,0
"05/12/08","13:06:29",6457.000,"cc",28305.934,6,0.100,5394.000,0.200,976.000,0.300,68.000,0.500,18.000,1.000,1.000,5.000,0
"05/12/08","13:06:35",6047.000,"cc",28317.000,6,0.100,5056.000,0.200,896.000,0.300,77.000,0.500,16.000,1.000,2.000,5.000,0
"05/12/08","13:06:41",7476.000,"cc",28320.113,6,0.100,6301.000,0.200,1079.000,0.300,82.000,0.500,13.000,1.000,1.000,5.000,0
"05/12/08","13:06:47",11007.000,"cc",28313.160,6,0.100,9335.000,0.200,1564.000,0.300,93.000,0.500,14.000,1.000,1.000,5.000,0
"05/12/08","13:06:53",6455.000,"cc",28300.904,6,0.100,5436.000,0.200,929.000,0.300,77.000,0.500,11.000,1.000,2.000,5.000,0
"05/12/08","13:06:59",9266.000,"cc",28318.473,6,0.100,7880.000,0.200,1287.000,0.300,85.000,0.500,13.000,1.000,1.000,5.000,0
"05/12/08","13:07:05",15071.000,"cc",28359.449,6,0.100,12901.000,0.200,2038.000,0.300,124.000,0.500,7.000,1.000,1.000,5.000,0
"05/12/08","13:07:11",14746.000,"cc",28306.143,6,0.100,12583.000,0.200,2022.000,0.300,131.000,0.500,8.000,1.000,2.000,5.000,0
"05/12/08","13:07:17",11673.000,"cc",28309.344,6,0.100,9892.000,0.200,1680.000,0.300,95.000,0.500,5.000,1.000,1.000,5.000,0
"05/12/08","13:07:23",14329.000,"cc",28345.791,6,0.100,12245.000,0.200,1932.000,0.300,138.000,0.500,13.000,1.000,1.000,5.000,0
"05/12/08","13:07:29",13673.000,"cc",28271.908,6,0.100,11646.000,0.200,1887.000,0.300,125.000,0.500,13.000,1.000,2.000,5.000,0
"05/12/08","13:07:35",13608.000,"cc",28312.361,6,0.100,11586.000,0.200,1888.000,0.300,117.000,0.500,17.000,1.000,0,5.000,0
"05/12/08","13:07:41",19341.000,"cc",28355.297,6,0.100,16592.000,0.200,2564.000,0.300,164.000,0.500,21.000,1.000,0,5.000,0
"05/12/08","13:07:47",12454.000,"cc",28312.035,6,0.100,10609.000,0.200,1718.000,0.300,110.000,0.500,17.000,1.000,0,5.000,0
"05/12/08","13:07:53",13259.000,"cc",28254.520,6,0.100,11219.000,0.200,1905.000,0.300,125.000,0.500,10.000,1.000,0,5.000,0
"05/12/08","13:07:59",7251.000,"cc",28320.279,6,0.100,6050.000,0.200,1104.000,0.300,95.000,0.500,2.000,1.000,0,5.000,0
"05/12/08","13:08:05",9674.000,"cc",28381.035,6,0.100,8138.000,0.200,1427.000,0.300,96.000,0.500,12.000,1.000,1.000,5.000,0
"05/12/08","13:08:11",12176.000,"cc",28264.307,6,0.100,10317.000,0.200,1731.000,0.300,117.000,0.500,11.000,1.000,0,5.000,0
"05/12/08","13:08:17",14941.000,"cc",28290.877,6,0.100,12725.000,0.200,2036.000,0.300,164.000,0.500,16.000,1.000,0,5.000,0
"05/12/08","13:08:23",9286.000,"cc",28339.598,6,0.100,7783.000,0.200,1403.000,0.300,89.000,0.500,10.000,1.000,1.000,5.000,0
"05/12/08","13:08:29",7635.000,"cc",28314.004,6,0.100,6393.000,0.200,1148.000,0.300,84.000,0.500,8.000,1.000,2.000,5.000,0
"05/12/08","13:08:35",6939.000,"cc",28340.297,6,0.100,5784.000,0.200,1053.000,0.300,96.000,0.500,6.000,1.000,0,5.000,0
"05/12/08","13:08:41",7843.000,"cc",28289.551,6,0.100,6588.000,0.200,1163.000,0.300,81.000,0.500,11.000,1.000,0,5.000,0
"05/12/08","13:08:47",11393.000,"cc",28351.953,6,0.100,9691.000,0.200,1575.000,0.300,111.000,0.500,15.000,1.000,1.000,5.000,0
"05/12/08","13:08:53",5119.000,"cc",28305.586,6,0.100,4208.000,0.200,823.000,0.300,76.000,0.500,12.000,1.000,0,5.000,0
"05/12/08","13:08:59",7065.000,"cc",28296.654,6,0.100,5840.000,0.200,1103.000,0.300,108.000,0.500,13.000,1.000,1.000,5.000,0
"05/12/08","13:09:05",6560.000,"cc",28278.266,6,0.100,5390.000,0.200,1056.000,0.300,100.000,0.500,14.000,1.000,0,5.000,0
"05/12/08","13:09:11",6454.000,"cc",28247.195,6,0.100,5381.000,0.200,987.000,0.300,74.000,0.500,11.000,1.000,1.000,5.000,0
"05/12/08","13:09:17",6256.000,"cc",28359.988,6,0.100,5236.000,0.200,941.000,0.300,69.000,0.500,10.000,1.000,0,5.000,0
"05/12/08","13:09:23",5911.000,"cc",28354.984,6,0.100,4878.000,0.200,932.000,0.300,90.000,0.500,11.000,1.000,0,5.000,0
"05/12/08","13:09:29",8965.000,"cc",28358.092,6,0.100,7498.000,0.200,1318.000,0.300,127.000,0.500,20.000,1.000,2.000,5.000,0
"05/12/08","13:09:35",8654.000,"cc",28367.762,6,0.100,7165.000,0.200,1356.000,0.300,117.000,0.500,15.000,1.000,1.000,5.000,0
"05/12/08","13:09:41",4982.000,"cc",28312.035,6,0.100,4088.000,0.200,825.000,0.300,61.000,0.500,7.000,1.000,1.000,5.000,0
"05/12/08","13:09:47",5135.000,"cc",28285.606,6,0.100,4211.000,0.200,814.000,0.300,97.000,0.500,13.000,1.000,0,5.000,0
"05/12/08","13:09:53",4816.000,"cc",28329.496,6,0.100,3901.000,0.200,812.000,0.300,87.000,0.500,16.000,1.000,0,5.000,0
"05/12/08","13:09:59",4235.000,"cc",28298.070,6,0.100,3459.000,0.200,682.000,0.300,79.000,0.500,13.000,1.000,2.000,5.000,0
"05/12/08","13:10:05",3261.000,"cc",28334.361,6,0.100,2626.000,0.200,585.000,0.300,42.000,0.500,7.000,1.000,1.000,5.000,0
"05/12/08","13:10:12",3760.000,"cc",28325.170,6,0.100,3029.000,0.200,651.000,0.300,71.000,0.500,6.000,1.000,3.000,5.000,0
"05/12/08","13:10:18",3972.000,"cc",28295.320,6,0.100,3280.000,0.200,633.000,0.300,47.000,0.500,11.000,1.000,1.000,5.000,0
"05/12/08","13:10:24",5743.000,"cc",28335.957,6,0.100,4746.000,0.200,887.000,0.300,90.000,0.500,19.000,1.000,1.000,5.000,0
"05/12/08","13:10:30",7894.000,"cc",28357.967,6,0.100,6616.000,0.200,1158.000,0.300,93.000,0.500,25.000,1.000,2.000,5.000,0
"05/12/08","13:10:36",4948.000,"cc",28299.381,6,0.100,4052.000,0.200,780.000,0.300,96.000,0.500,17.000,1.000,3.000,5.000,0
"05/12/08","13:10:42",5969.000,"cc",28321.422,6,0.100,4923.000,0.200,930.000,0.300,104.000,0.500,10.000,1.000,2.000,5.000,0
"05/12/08","13:10:48",5698.000,"cc",28310.572,6,0.100,4716.000,0.200,868.000,0.300,103.000,0.500,10.000,1.000,1.000,5.000,0
"05/12/08","13:10:54",9737.000,"cc",28258.119,6,0.100,8130.000,0.200,1463.000,0.300,127.000,0.500,15.000,1.000,2.000,5.000,0
"05/12/08","13:11:00",10427.000,"cc",28305.799,6,0.100,8764.000,0.200,1517.000,0.300,129.000,0.500,16.000,1.000,1.000,5.000,0
"05/12/08","13:11:06",8473.000,"cc",28320.463,6,0.100,7009.000,0.200,1327.000,0.300,129.000,0.500,8.000,1.000,0,5.000,0
"05/12/08","13:11:12",5810.000,"cc",28315.916,6,0.100,4766.000,0.200,969.000,0.300,68.000,0.500,7.000,1.000,0,5.000,0
"05/12/08","13:11:18",8699.000,"cc",28351.598,6,0.100,7256.000,0.200,1317.000,0.300,116.000,0.500,8.000,1.000,2.000,5.000,0
"05/12/08","13:11:24",5512.000,"cc",28324.424,6,0.100,4520.000,0.200,890.000,0.300,90.000,0.500,11.000,1.000,1.000,5.000,0
"05/12/08","13:11:30",7948.000,"cc",28280.180,6,0.100,6587.000,0.200,1235.000,0.300,108.000,0.500,16.000,1.000,2.000,5.000,0
"05/12/08","13:11:36",6872.000,"cc",28350.805,6,0.100,5677.000,0.200,1076.000,0.300,105.000,0.500,13.000,1.000,1.000,5.000,0
"05/12/08","13:11:42",7896.000,"cc",28301.000,6,0.100,6536.000,0.200,1210.000,0.300,127.000,0.500,21.000,1.000,2.000,5.000,0
"05/12/08","13:11:48",7332.000,"cc",28327.291,6,0.100,6055.000,0.200,1149.000,0.300,105.000,0.500,21.000,1.000,2.000,5.000,0
"05/12/08","13:11:54",8068.000,"cc",28378.473,6,0.100,6706.000,0.200,1222.000,0.300,124.000,0.500,15.000,1.000,1.000,5.000,0
"05/12/08","13:12:00",7693.000,"cc",28309.897,6,0.100,6432.000,0.200,1150.000,0.300,97.000,0.500,13.000,1.000,1.000,5.000,0
"05/12/08","13:12:06",9105.000,"cc",28274.012,6,0.100,7660.000,0.200,1307.000,0.300,122.000,0.500,12.000,1.000,4.000,5.000,0
"05/12/08","13:12:12",8591.000,"cc",28285.369,6,0.100,7169.000,0.200,1290.000,0.300,115.000,0.500,15.000,1.000,2.000,5.000,0
"05/12/08","13:12:18",9294.000,"cc",28266.832,6,0.100,7725.000,0.200,1432.000,0.300,126.000,0.500,11.000,1.000,0,5.000,0
"05/12/08","13:12:24",7743.000,"cc",28312.783,6,0.100,6455.000,0.200,1163.000,0.300,111.000,0.500,13.000,1.000,1.000,5.000,0
"05/12/08","13:12:30",9186.000,"cc",28350.096,6,0.100,7726.000,0.200,1354.000,0.300,92.000,0.500,13.000,1.000,1.000,5.000,0
"05/12/08","13:12:36",9180.000,"cc",28388.541,6,0.100,7678.000,0.200,1378.000,0.300,111.000,0.500,11.000,1.000,2.000,5.000,0
"05/12/08","13:12:42",7487.000,"cc",28337.195,6,0.100,6300.000,0.200,1081.000,0.300,91.000,0.500,15.000,1.000,0,5.000,0
"05/12/08","13:12:48",9315.000,"cc",28262.848,6,0.100,7819.000,0.200,1370.000,0.300,116.000,0.500,9.000,1.000,1.000,5.000,0
"05/12/08","13:12:54",11668.000,"cc",28289.242,6,0.100,9794.000,0.200,1732.000,0.300,129.000,0.500,13.000,1.000,0,5.000,0
"05/12/08","13:13:00",9153.000,"cc",28326.268,6,0.100,7677.000,0.200,1361.000,0.300,100.000,0.500,14.000,1.000,1.000,5.000,0
"05/12/08","13:13:06",6325.000,"cc",28349.873,6,0.100,5239.000,0.200,989.000,0.300,85.000,0.500,11.000,1.000,1.000,5.000,0
"05/12/08","13:13:12",8078.000,"cc",28306.092,6,0.100,6634.000,0.200,1292.000,0.300,128.000,0.500,24.000,1.000,0,5.000,0
"05/12/08","13:13:18",6506.000,"cc",28364.549,6,0.100,5409.000,0.200,977.000,0.300,103.000,0.500,17.000,1.000,0,5.000,0
"05/12/08","13:13:24",4750.000,"cc",28304.949,6,0.100,3921.000,0.200,736.000,0.300,78.000,0.500,13.000,1.000,2.000,5.000,0
"05/12/08","13:13:30",5854.000,"cc",28330.154,6,0.100,4822.000,0.200,916.000,0.300,96.000,0.500,19.000,1.000,1.000,5.000,0
"05/12/08","13:13:36",4656.000,"cc",28267.135,6,0.100,3780.000,0.200,778.000,0.300,81.000,0.500,17.000,1.000,0,5.000,0
"05/12/08","13:13:42",5861.000,"cc",28286.674,6,0.100,4798.000,0.200,955.000,0.300,93.000,0.500,14.000,1.000,1.000,5.000,0
"05/12/08","13:13:48",6997.000,"cc",28323.184,6,0.100,5822.000,0.200,1062.000,0.300,104.000,0.500,9.000,1.000,0,5.000,0
"05/12/08","13:13:54",5403.000,"cc",28347.066,6,0.100,4446.000,0.200,845.000,0.300,97.000,0.500,12.000,1.000,3.000,5.000,0
"05/12/08","13:14:00",4888.000,"cc",28289.078,6,0.100,4020.000,0.200,795.000,0.300,67.000,0.500,6.000,1.000,0,5.000,0
"05/12/08","13:14:06",4556.000,"cc",28311.598,6,0.100,3700.000,0.200,775.000,0.300,70.000,0.500,11.000,1.000,0,5.000,0
"05/12/08","13:14:12",6172.000,"cc",28355.096,6,0.100,5105.000,0.200,934.000,0.300,105.000,0.500,27.000,1.000,1.000,5.000,0
"05/12/08","13:14:18",4402.000,"cc",28353.565,6,0.100,3592.000,0.200,708.000,0.300,87.000,0.500,13.000,1.000,2.000,5.000,0
"05/12/08","13:14:24",5038.000,"cc",28268.065,6,0.100,4133.000,0.200,804.000,0.300,85.000,0.500,16.000,1.000,0,5.000,0
"05/12/08","13:14:30",6044.000,"cc",28295.303,6,0.100,4928.000,0.200,997.000,0.300,106.000,0.500,11.000,1.000,2.000,5.000,0
"05/12/08","13:14:36",6034.000,"cc",28330.088,6,0.100,4944.000,0.200,979.000,0.300,97.000,0.500,13.000,1.000,1.000,5.000,0
"05/12/08","13:14:42",6403.000,"cc",28321.637,6,0.100,5218.000,0.200,1051.000,0.300,122.000,0.500,10.000,1.000,2.000,5.000,0
"05/12/08","13:14:48",5830.000,"cc",28304.916,6,0.100,4762.000,0.200,962.000,0.300,87.000,0.500,16.000,1.000,3.000,5.000,0
"05/12/08","13:14:54",7338.000,"cc",28328.168,6,0.100,6094.000,0.200,1103.000,0.300,120.000,0.500,21.000,1.000,0,5.000,0
"05/12/08","13:15:00",5712.000,"cc",28335.018,6,0.100,4661.000,0.200,921.000,0.300,111.000,0.500,19.000,1.000,0,5.000,0
"05/12/08","13:15:06",5289.000,"cc",28321.830,6,0.100,4309.000,0.200,871.000,0.300,93.000,0.500,15.000,1.000,1.000,5.000,0
"05/12/08","13:15:12",4785.000,"cc",28342.772,6,0.100,3850.000,0.200,829.000,0.300,91.000,0.500,13.000,1.000,2.000,5.000,0
"05/12/08","13:15:18",5349.000,"cc",28282.635,6,0.100,4398.000,0.200,866.000,0.300,70.000,0.500,14.000,1.000,1.000,5.000,0
"05/12/08","13:15:24",5622.000,"cc",28326.606,6,0.100,4654.000,0.200,879.000,0.300,72.000,0.500,15.000,1.000,2.000,5.000,0
"05/12/08","13:15:30",4462.000,"cc",28290.223,6,0.100,3659.000,0.200,706.000,0.300,89.000,0.500,7.000,1.000,1.000,5.000,0
"05/12/08","13:15:36",6101.000,"cc",28340.541,6,0.100,5000.000,0.200,992.000,0.300,89.000,0.500,17.000,1.000,3.000,5.000,0
"05/12/08","13:15:42",5485.000,"cc",28310.340,6,0.100,4446.000,0.200,918.000,0.300,111.000,0.500,8.000,1.000,2.000,5.000,0
"05/12/08","13:15:48",4529.000,"cc",28313.897,6,0.100,3674.000,0.200,774.000,0.300,67.000,0.500,11.000,1.000,3.000,5.000,0
"05/12/08","13:15:54",4587.000,"cc",28312.486,6,0.100,3716.000,0.200,761.000,0.300,90.000,0.500,19.000,1.000,1.000,5.000,0
"05/12/08","13:16:00",4995.000,"cc",28321.676,6,0.100,4100.000,0.200,801.000,0.300,76.000,0.500,15.000,1.000,3.000,5.000,0
"05/12/08","13:16:06",7620.000,"cc",28294.285,6,0.100,6306.000,0.200,1201.000,0.300,102.000,0.500,9.000,1.000,2.000,5.000,0
"05/12/08","13:16:12",5732.000,"cc",28351.898,6,0.100,4668.000,0.200,987.000,0.300,72.000,0.500,5.000,1.000,0,5.000,0
"05/12/08","13:16:18",4784.000,"cc",28315.719,6,0.100,3915.000,0.200,788.000,0.300,69.000,0.500,10.000,1.000,2.000,5.000,0
"05/12/08","13:16:24",4848.000,"cc",28334.994,6,0.100,3992.000,0.200,779.000,0.300,66.000,0.500,10.000,1.000,1.000,5.000,0
"05/12/08","13:16:30",6124.000,"cc",28317.279,6,0.100,5087.000,0.200,950.000,0.300,77.000,0.500,9.000,1.000,1.000,5.000,0
"05/12/08","13:16:36",7635.000,"cc",28242.373,6,0.100,6384.000,0.200,1152.000,0.300,86.000,0.500,12.000,1.000,1.000,5.000,0
"05/12/08","13:16:42",5666.000,"cc",28302.924,6,0.100,4725.000,0.200,859.000,0.300,69.000,0.500,11.000,1.000,2.000,5.000,0
"05/12/08","13:16:48",8305.000,"cc",28306.893,6,0.100,6935.000,0.200,1276.000,0.300,84.000,0.500,10.000,1.000,0,5.000,0
"05/12/08","13:16:54",16551.000,"cc",28328.406,6,0.100,13948.000,0.200,2391.000,0.300,193.000,0.500,18.000,1.000,1.000,5.000,0
"05/12/08","13:17:00",12056.000,"cc",28408.398,6,0.100,10076.000,0.200,1818.000,0.300,147.000,0.500,14.000,1.000,1.000,5.000,0
"05/12/08","13:17:06",9580.000,"cc",28302.156,6,0.100,8087.000,0.200,1347.000,0.300,126.000,0.500,19.000,1.000,1.000,5.000,0
"05/12/08","13:17:12",7564.000,"cc",28308.340,6,0.100,6294.000,0.200,1155.000,0.300,102.000,0.500,12.000,1.000,1.000,5.000,0
"05/12/08","13:17:18",6183.000,"cc",28293.551,6,0.100,5135.000,0.200,935.000,0.300,97.000,0.500,16.000,1.000,0,5.000,0
"05/12/08","13:17:24",5613.000,"cc",28351.932,6,0.100,4544.000,0.200,963.000,0.300,103.000,0.500,2.000,1.000,1.000,5.000,0
"05/12/08","13:17:30",4978.000,"cc",28300.440,6,0.100,4035.000,0.200,841.000,0.300,88.000,0.500,14.000,1.000,0,5.000,0
"05/12/08","13:17:36",4887.000,"cc",28322.850,6,0.100,4034.000,0.200,762.000,0.300,78.000,0.500,10.000,1.000,3.000,5.000,0
"05/12/08","13:17:42",6108.000,"cc",28303.643,6,0.100,5005.000,0.200,1001.000,0.300,85.000,0.500,17.000,1.000,0,5.000,0
"05/12/08","13:17:48",5257.000,"cc",28305.729,6,0.100,4286.000,0.200,889.000,0.300,74.000,0.500,7.000,1.000,1.000,5.000,0
"05/12/08","13:17:54",3895.000,"cc",28297.197,6,0.100,3159.000,0.200,658.000,0.300,69.000,0.500,8.000,1.000,1.000,5.000,0
"05/12/08","13:18:00",5980.000,"cc",28295.391,6,0.100,4857.000,0.200,1015.000,0.300,94.000,0.500,14.000,1.000,0,5.000,0
"05/12/08","13:18:06",7752.000,"cc",28337.051,6,0.100,6462.000,0.200,1188.000,0.300,87.000,0.500,15.000,1.000,0,5.000,0
"05/12/08","13:18:12",5849.000,"cc",28345.320,6,0.100,4769.000,0.200,981.000,0.300,84.000,0.500,13.000,1.000,2.000,5.000,0
"05/12/08","13:18:18",5994.000,"cc",28292.154,6,0.100,4921.000,0.200,969.000,0.300,92.000,0.500,11.000,1.000,1.000,5.000,0